Madison, MN

9:09 AM CDT on March 25, 2017 (GMT -0500)
Madison-Lac Qui Parle County

Weather History for KDXX - December, 2012

Change the Weather History Date:

Sunday, December 23, 2012

  Actual Average (KAQP) Record (KAQP)
Temperature  
Mean Temperature 8 °F -  
Max Temperature 12 °F 21 °F 39 °F (2006)
Min Temperature 5 °F 6 °F -20 °F (2013)
Degree Days  
Heating Degree Days 56    
Moisture  
Dew Point 4 °F    
Average Humidity 83    
Maximum Humidity 92    
Minimum Humidity 79    
Precipitation  
Precipitation 0.00 in - - ()
Sea Level Pressure  
Sea Level Pressure 30.10 in    
Wind  
Wind Speed 8 mph (North)    
Max Wind Speed 14 mph    
Max Gust Speed -    
Visibility 10 miles    
Events Snow    
Averages and records for this station are not official NWS values.
T = Trace of Precipitation, MM = Missing Value Source: NWS Daily Summary

Daily Weather History Graph

Daily Weather History Graph

Search for Another Location

Airport or City:

Trip Planner

Search our weather history database for the weather conditions in past years. The results will help you decide how hot, cold, wet, or windy it might be!

Date:

Astronomy

Dec. 23, 2012 Rise Set
Actual Time 8:01 AM CST 4:47 PM CST
Civil Twilight 7:27 AM CST 5:21 PM CST
Nautical Twilight 6:49 AM CST 5:58 PM CST
Astronomical Twilight 6:14 AM CST 6:34 PM CST
Moon 1:43 PM CST (12/23) 3:38 AM CST (12/23)
Length of Visible Light 9h 54m
Length of Day
8h 46m
Waxing Gibbous, 82% of the Moon is Illuminated
Dec 23
Waxing Gibbous
Dec 28
Full
Jan 4
Last Quarter
Jan 11
New
Jan 18
First Quarter

Hourly Weather History & Observations

Time (CST) Temp. Windchill Dew Point Humidity Pressure Visibility Wind Dir Wind Speed Gust Speed Precip Events Conditions
12:13 AM 6.8 °F -6.9 °F 3.2 °F 85% 30.12 in 7.0 mi NW 9.2 mph - N/A Snow Light Snow
12:34 AM 6.8 °F -6.9 °F 1.4 °F 79% 30.12 in 10.0 mi NW 9.2 mph - N/A   Overcast
12:54 AM 6.8 °F -7.8 °F 1.4 °F 79% 30.12 in 10.0 mi NNW 10.4 mph - N/A   Mostly Cloudy
1:13 AM 6.8 °F -10.0 °F 1.4 °F 79% 30.12 in 10.0 mi NNW 13.8 mph - N/A   Scattered Clouds
1:34 AM 6.8 °F -8.6 °F 1.4 °F 79% 30.13 in 10.0 mi NNW 11.5 mph - N/A   Clear
1:54 AM 6.8 °F -7.8 °F 1.4 °F 79% 30.14 in 10.0 mi NW 10.4 mph - N/A   Clear
2:13 AM 6.8 °F -7.8 °F 1.4 °F 79% 30.14 in 10.0 mi NNW 10.4 mph - N/A   Clear
2:34 AM 6.8 °F -6.9 °F 1.4 °F 79% 30.14 in 10.0 mi NNW 9.2 mph - N/A   Clear
2:54 AM 6.8 °F -6.9 °F 1.4 °F 79% 30.14 in 10.0 mi NNW 9.2 mph - N/A   Mostly Cloudy
3:13 AM 6.8 °F -5.9 °F 1.4 °F 79% 30.13 in 10.0 mi NNW 8.1 mph - N/A   Overcast
3:34 AM 6.8 °F -6.9 °F 3.2 °F 85% 30.14 in 10.0 mi NNW 9.2 mph - N/A   Mostly Cloudy
3:54 AM 8.6 °F -4.7 °F 3.2 °F 79% 30.14 in 10.0 mi NNW 9.2 mph - N/A   Overcast
4:13 AM 8.6 °F -4.7 °F 3.2 °F 79% 30.13 in 10.0 mi NNW 9.2 mph - N/A   Mostly Cloudy
4:34 AM 8.6 °F -2.6 °F 5.0 °F 85% 30.13 in 10.0 mi NW 6.9 mph - N/A   Mostly Cloudy
4:54 AM 8.6 °F -3.7 °F 5.0 °F 85% 30.13 in 10.0 mi NNW 8.1 mph - N/A   Scattered Clouds
5:13 AM 8.6 °F -2.6 °F 3.2 °F 79% 30.13 in 10.0 mi NNW 6.9 mph - N/A   Clear
5:34 AM 8.6 °F -2.6 °F 3.2 °F 79% 30.13 in 10.0 mi NNW 6.9 mph - N/A   Clear
5:54 AM 6.8 °F -4.8 °F 3.2 °F 85% 30.14 in 10.0 mi NW 6.9 mph - N/A   Clear
6:13 AM 6.8 °F -3.5 °F 3.2 °F 85% 30.14 in 10.0 mi NNW 5.8 mph - N/A   Clear
6:34 AM 6.8 °F -5.9 °F 3.2 °F 85% 30.14 in 10.0 mi NNW 8.1 mph - N/A   Clear
6:54 AM 6.8 °F -5.9 °F 3.2 °F 85% 30.14 in 10.0 mi North 8.1 mph - N/A   Clear
7:13 AM 6.8 °F -4.8 °F 3.2 °F 85% 30.13 in 10.0 mi North 6.9 mph - N/A   Clear
7:34 AM 6.8 °F -5.9 °F 3.2 °F 85% 30.14 in 10.0 mi NNW 8.1 mph - N/A   Clear
7:54 AM 6.8 °F -5.9 °F 1.4 °F 79% 30.14 in 10.0 mi North 8.1 mph - N/A   Clear
8:13 AM 6.8 °F -6.9 °F 1.4 °F 79% 30.14 in 10.0 mi North 9.2 mph - N/A   Clear
8:34 AM 6.8 °F -4.8 °F 1.4 °F 79% 30.13 in 10.0 mi North 6.9 mph - N/A   Clear
8:54 AM 6.8 °F -3.5 °F 1.4 °F 79% 30.13 in 10.0 mi North 5.8 mph - N/A   Clear
9:13 AM 6.8 °F -3.5 °F 1.4 °F 79% 30.12 in 10.0 mi NNE 5.8 mph - N/A   Clear
9:34 AM 6.8 °F -3.5 °F 1.4 °F 79% 30.12 in 10.0 mi North 5.8 mph - N/A   Clear
9:54 AM 6.8 °F -3.5 °F 3.2 °F 85% 30.12 in 10.0 mi NNE 5.8 mph - N/A   Clear
10:13 AM 6.8 °F -3.5 °F 3.2 °F 85% 30.13 in 10.0 mi NNE 5.8 mph - N/A   Clear
10:34 AM 6.8 °F -2.0 °F 3.2 °F 85% 30.13 in 10.0 mi NNE 4.6 mph - N/A   Clear
10:54 AM 8.6 °F -1.3 °F 3.2 °F 79% 30.12 in 10.0 mi NE 5.8 mph - N/A   Clear
11:13 AM 8.6 °F 2.0 °F 3.2 °F 79% 30.12 in 10.0 mi NNE 3.5 mph - N/A   Clear
11:34 AM 8.6 °F 2.0 °F 5.0 °F 85% 30.11 in 10.0 mi NE 3.5 mph - N/A   Clear
11:54 AM 8.6 °F 0.1 °F 5.0 °F 85% 30.10 in 10.0 mi ENE 4.6 mph - N/A   Clear
12:13 PM 10.4 °F - 6.8 °F 85% 30.11 in 7.0 mi Calm Calm - N/A Snow Light Snow
12:34 PM 10.4 °F - 6.8 °F 85% 30.09 in 10.0 mi Calm Calm - N/A Snow Light Snow
12:54 PM 10.4 °F 4.0 °F 6.8 °F 85% 30.08 in 10.0 mi East 3.5 mph - N/A   Clear
1:13 PM 10.4 °F 0.8 °F 6.8 °F 85% 30.07 in 10.0 mi East 5.8 mph - N/A Snow Light Snow
1:34 PM 12.2 °F 2.9 °F 6.8 °F 79% 30.07 in 10.0 mi East 5.8 mph - N/A   Clear
1:54 PM 12.2 °F 4.3 °F 6.8 °F 79% 30.08 in 10.0 mi East 4.6 mph - N/A   Clear
2:13 PM 12.2 °F - 6.8 °F 79% 30.08 in 10.0 mi Calm Calm - N/A   Clear
2:34 PM 12.2 °F 6.1 °F 6.8 °F 79% 30.08 in 10.0 mi East 3.5 mph - N/A   Clear
2:54 PM 12.2 °F 6.1 °F 6.8 °F 79% 30.09 in 10.0 mi ENE 3.5 mph - N/A   Clear
3:13 PM 12.2 °F 2.9 °F 6.8 °F 79% 30.10 in 10.0 mi NNE 5.8 mph - N/A   Clear
3:34 PM 12.2 °F 2.9 °F 6.8 °F 79% 30.11 in 10.0 mi North 5.8 mph - N/A   Clear
3:54 PM 12.2 °F 4.3 °F 6.8 °F 79% 30.12 in 10.0 mi North 4.6 mph - N/A   Clear
4:13 PM 12.2 °F 6.1 °F 6.8 °F 79% 30.11 in 10.0 mi North 3.5 mph - N/A   Scattered Clouds
4:34 PM 12.2 °F 2.9 °F 6.8 °F 79% 30.12 in 10.0 mi NNW 5.8 mph - N/A   Scattered Clouds
4:53 PM 10.4 °F - 6.8 °F 85% 30.09 in 10.0 mi Calm Calm - N/A   Clear
5:14 PM 10.4 °F - 6.8 °F 85% 30.09 in 10.0 mi Calm Calm - N/A   Clear
5:34 PM 8.6 °F 2.0 °F 5.0 °F 85% 30.08 in 10.0 mi North 3.5 mph - N/A   Clear
5:53 PM 8.6 °F 2.0 °F 5.0 °F 85% 30.08 in 10.0 mi North 3.5 mph - N/A   Clear
6:14 PM 8.6 °F 0.1 °F 5.0 °F 85% 30.07 in 10.0 mi North 4.6 mph - N/A   Clear
6:34 PM 6.8 °F -3.5 °F 3.2 °F 85% 30.06 in 10.0 mi North 5.8 mph - N/A   Clear
6:53 PM 6.8 °F -3.5 °F 3.2 °F 85% 30.06 in 10.0 mi North 5.8 mph - N/A   Scattered Clouds
7:14 PM 8.6 °F -1.3 °F 6.8 °F 92% 30.05 in 10.0 mi North 5.8 mph - N/A   Overcast
7:34 PM 10.4 °F -1.5 °F 6.8 °F 85% 30.05 in 10.0 mi NNE 8.1 mph - N/A   Mostly Cloudy
7:53 PM 10.4 °F 0.8 °F 6.8 °F 85% 30.04 in 10.0 mi North 5.8 mph - N/A   Mostly Cloudy
8:14 PM 8.6 °F -1.3 °F 5.0 °F 85% 30.05 in 10.0 mi North 5.8 mph - N/A   Scattered Clouds
8:53 PM 5.0 °F -4.1 °F 1.4 °F 85% 30.05 in 10.0 mi WNW 4.6 mph - N/A   Clear
9:14 PM 8.6 °F -1.3 °F 5.0 °F 85% 30.06 in 10.0 mi WNW 5.8 mph - N/A   Clear
9:34 PM 8.6 °F -4.7 °F 5.0 °F 85% 30.07 in 10.0 mi WNW 9.2 mph - N/A   Scattered Clouds
9:53 PM 8.6 °F -4.7 °F 5.0 °F 85% 30.07 in 10.0 mi NW 9.2 mph - N/A   Scattered Clouds
10:14 PM 8.6 °F -4.7 °F 6.8 °F 92% 30.05 in 10.0 mi NW 9.2 mph - N/A   Mostly Cloudy
10:33 PM 8.6 °F -4.7 °F 6.8 °F 92% 30.05 in 10.0 mi NW 9.2 mph - N/A   Mostly Cloudy
10:53 PM 10.4 °F -1.5 °F 6.8 °F 85% 30.04 in 10.0 mi NNW 8.1 mph - N/A   Scattered Clouds
11:14 PM 10.4 °F -0.4 °F 6.8 °F 85% 30.05 in 10.0 mi NW 6.9 mph - N/A   Mostly Cloudy
11:34 PM 10.4 °F -2.4 °F 6.8 °F 85% 30.05 in 10.0 mi NNW 9.2 mph - N/A   Scattered Clouds
11:53 PM 10.4 °F -4.1 °F 6.8 °F 85% 30.05 in 10.0 mi NNW 11.5 mph - N/A   Clear